QPF
0.00 0.00 0.00 0.00 0.01 0.01 0.01 0.01 0.01 0.01 0.01 0.01 0.01 0.01 0.01 0.01 0.01 0.01 0.01 0.00 0.00 0.00 0.01 0.01 0.01 0.01 0.01 0.01 0.01 0.01 0.01 0.01 0.01 0.01 0.00 0.00 0.00 0.01 0.03 0.04 0.03 0.04 0.11
0.00 0.00 0.00 0.00 0.00 0.00 0.00 0.00 0.00 0.00 0.00 0.01 0.01 0.01 0.01 0.00 0.00 0.01 0.00 0.00 0.00 0.00 0.00 0.01 0.01 0.01 0.01 0.01 0.01 0.01 0.00 0.01 0.00 0.00 0.00 0.00 0.00 0.01 0.03 0.03 0.02 0.03 0.08
0.00 0.00 0.00 0.00 0.00 0.00 0.00 0.00 0.00 0.00 0.00 0.00 0.00 0.00 0.00 0.00 0.00 0.00 0.00 0.00 0.00 0.01 0.01 0.01 0.00 0.00 0.00 0.01 0.01 0.00 0.00 0.00 0.00 0.00 0.00 0.00 0.00 0.01 0.03 0.03 0.03 0.03 0.04
0.00 0.00 0.00 0.00 0.00 0.00 0.00 0.00 0.00 0.00 0.00 0.00 0.00 0.00 0.00 0.00 0.00 0.00 0.00 0.00 0.00 0.00 0.01 0.01 0.00 0.00 0.00 0.00 0.00 0.00 0.00 0.00 0.00 0.00 0.00 0.00 0.00 0.01 0.02 0.03 0.03 0.04 0.04
0.00 0.00 0.00 0.00 0.00 0.00 0.00 0.00 0.00 0.00 0.00 0.00 0.00 0.00 0.00 0.00 0.00 0.00 0.00 0.00 0.00 0.00 0.00 0.01 0.01 0.00 0.00 0.00 0.00 0.00 0.00 0.00 0.00 0.00 0.00 0.00 0.00 0.00 0.01 0.02 0.02 0.02 0.03
0.00 0.00 0.00 0.00 0.00 0.00 0.00 0.00 0.00 0.00 0.00 0.00 0.00 0.00 0.00 0.00 0.00 0.00 0.00 0.00 0.00 0.00 0.00 0.00 0.00 0.00 0.00 0.00 0.00 0.00 0.00 0.00 0.00 0.00 0.00 0.00 0.00 0.00 0.00 0.01 0.01 0.02 0.02
0.00 0.00 0.00 0.00 0.00 0.00 0.00 0.00 0.00 0.00 0.00 0.00 0.00 0.00 0.00 0.00 0.00 0.00 0.00 0.00 0.00 0.00 0.00 0.00 0.00 0.00 0.00 0.00 0.00 0.00 0.00 0.00 0.00 0.00 0.00 0.00 0.00 0.00 0.00 0.00 0.01 0.01 0.02
0.00 0.00 0.00 0.00 0.00 0.00 0.00 0.00 0.00 0.00 0.00 0.00 0.00 0.00 0.00 0.00 0.00 0.00 0.00 0.00 0.00 0.00 0.00 0.00 0.00 0.00 0.00 0.00 0.00 0.00 0.00 0.00 0.00 0.00 0.00 0.00 0.00 0.00 0.00 0.00 0.00 0.01 0.02
0.00 0.00 0.00 0.00 0.00 0.00 0.00 0.00 0.00 0.00 0.00 0.00 0.00 0.00 0.00 0.00 0.00 0.00 0.00 0.00 0.00 0.00 0.00 0.00 0.00 0.00 0.00 0.00 0.00 0.00 0.00 0.00 0.00 0.00 0.00 0.00 0.00 0.00 0.00 0.00 0.00 0.00 0.01
0.00 0.00 0.00 0.00 0.00 0.00 0.00 0.00 0.00 0.00 0.00 0.00 0.00 0.00 0.00 0.00 0.00 0.00 0.00 0.00 0.00 0.00 0.00 0.00 0.00 0.00 0.00 0.00 0.00 0.00 0.00 0.00 0.00 0.00 0.00 0.00 0.00 0.00 0.00 0.00 0.00 0.00 0.00
0.00 0.00 0.00 0.00 0.00 0.00 0.00 0.00 0.00 0.00 0.00 0.00 0.00 0.00 0.00 0.00 0.00 0.00 0.00 0.00 0.00 0.00 0.00 0.00 0.00 0.00 0.00 0.00 0.00 0.00 0.00 0.00 0.00 0.00 0.00 0.00 0.00 0.00 0.00 0.00 0.00 0.00 0.00
0.00 0.00 0.00 0.00 0.00 0.00 0.00 0.00 0.00 0.00 0.00 0.00 0.00 0.00 0.00 0.00 0.00 0.00 0.00 0.00 0.00 0.00 0.00 0.00 0.00 0.00 0.00 0.00 0.00 0.00 0.00 0.00 0.00 0.00 0.00 0.00 0.00 0.00 0.00 0.00 0.00 0.00 0.00
0.00 0.00 0.00 0.00 0.00 0.00 0.00 0.00 0.00 0.00 0.00 0.00 0.00 0.00 0.00 0.00 0.00 0.00 0.00 0.00 0.00 0.00 0.00 0.00 0.00 0.00 0.00 0.00 0.00 0.00 0.00 0.00 0.00 0.00 0.00 0.00 0.00 0.00 0.00 0.00 0.00 0.00 0.00
0.00 0.00 0.00 0.00 0.00 0.00 0.00 0.00 0.00 0.00 0.00 0.00 0.00 0.00 0.00 0.00 0.00 0.00 0.00 0.00 0.00 0.00 0.00 0.00 0.00 0.00 0.00 0.00 0.00 0.00 0.00 0.00 0.00 0.00 0.00 0.00 0.00 0.00 0.00 0.00 0.00 0.00 0.00
0.00 0.00 0.00 0.00 0.00 0.00 0.00 0.00 0.00 0.00 0.00 0.00 0.00 0.00 0.00 0.00 0.00 0.00 0.00 0.00 0.00 0.00 0.00 0.00 0.00 0.00 0.00 0.00 0.00 0.00 0.00 0.00 0.00 0.00 0.00 0.00 0.00 0.00 0.00 0.00 0.00 0.00 0.00
0.00 0.00 0.00 0.00 0.00 0.00 0.00 0.00 0.00 0.00 0.00 0.00 0.00 0.00 0.00 0.00 0.00 0.00 0.00 0.00 0.00 0.00 0.00 0.00 0.00 0.00 0.00 0.00 0.00 0.00 0.00 0.00 0.00 0.00 0.00 0.00 0.00 0.00 0.00 0.00 0.00 0.00 0.00
0.00 0.00 0.00 0.00 0.00 0.00 0.00 0.00 0.00 0.00 0.00 0.00 0.00 0.00 0.00 0.00 0.00 0.00 0.00 0.00 0.00 0.00 0.00 0.00 0.00 0.00 0.00 0.00 0.00 0.00 0.00 0.00 0.00 0.00 0.00 0.00 0.00 0.00 0.00 0.00 0.00 0.00 0.00
0.00 0.00 0.00 0.00 0.00 0.00 0.00 0.00 0.00 0.00 0.00 0.00 0.00 0.00 0.00 0.00 0.00 0.00 0.00 0.00 0.00 0.00 0.00 0.00 0.00 0.00 0.00 0.00 0.00 0.00 0.00 0.00 0.00 0.00 0.00 0.00 0.00 0.00 0.00 0.00 0.00 0.00 0.00
0.00 0.00 0.00 0.00 0.00 0.00 0.00 0.00 0.00 0.00 0.00 0.00 0.00 0.00 0.00 0.00 0.00 0.00 0.00 0.00 0.00 0.00 0.00 0.00 0.00 0.00 0.00 0.00 0.00 0.00 0.00 0.00 0.00 0.00 0.00 0.00 0.00 0.00 0.00 0.00 0.00 0.00 0.00
0.00 0.00 0.00 0.00 0.00 0.00 0.00 0.00 0.00 0.00 0.00 0.00 0.00 0.00 0.00 0.00 0.00 0.00 0.00 0.00 0.00 0.00 0.00 0.00 0.00 0.00 0.00 0.00 0.00 0.00 0.00 0.00 0.00 0.00 0.00 0.00 0.00 0.00 0.00 0.00 0.00 0.00 0.00
0.00 0.00 0.00 0.00 0.00 0.00 0.00 0.00 0.00 0.00 0.00 0.00 0.00 0.00 0.00 0.00 0.00 0.00 0.00 0.00 0.00 0.00 0.00 0.00 0.00 0.00 0.00 0.00 0.00 0.00 0.00 0.00 0.00 0.00 0.00 0.00 0.01 0.01 0.01 0.01 0.00 0.00 0.00
0.00 0.00 0.00 0.00 0.00 0.00 0.00 0.00 0.00 0.00 0.00 0.00 0.00 0.00 0.00 0.00 0.00 0.00 0.00 0.00 0.00 0.00 0.00 0.00 0.00 0.00 0.00 0.00 0.01 0.02 0.01 0.00 0.00 0.00 0.00 0.01 0.01 0.02 0.01 0.01 0.00 0.00 0.00
0.00 0.00 0.00 0.00 0.00 0.00 0.00 0.00 0.00 0.00 0.00 0.00 0.00 0.00 0.00 0.00 0.00 0.00 0.00 0.00 0.00 0.00 0.00 0.00 0.00 0.00 0.01 0.01 0.01 0.03 0.05 0.03 0.01 0.00 0.00 0.00 0.00 0.01 0.00 0.00 0.00 0.00 0.00
0.00 0.00 0.00 0.00 0.00 0.00 0.00 0.00 0.00 0.00 0.00 0.00 0.00 0.00 0.00 0.00 0.00 0.00 0.00 0.00 0.00 0.00 0.00 0.00 0.00 0.01 0.02 0.02 0.02 0.02 0.03 0.04 0.04 0.02 0.00 0.00 0.00 0.00 0.00 0.00 0.00 0.00 0.00
0.00 0.00 0.00 0.00 0.00 0.00 0.00 0.00 0.00 0.00 0.00 0.00 0.00 0.00 0.00 0.00 0.00 0.00 0.00 0.00 0.00 0.00 0.00 0.00 0.00 0.01 0.02 0.03 0.03 0.03 0.03 0.02 0.03 0.05 0.02 0.00 0.00 0.00 0.00 0.00 0.00 0.00 0.00
0.00 0.00 0.00 0.00 0.00 0.00 0.00 0.00 0.00 0.00 0.00 0.00 0.00 0.00 0.00 0.00 0.00 0.00 0.00 0.00 0.00 0.00 0.00 0.00 0.01 0.01 0.02 0.03 0.03 0.04 0.05 0.06 0.05 0.06 0.05 0.01 0.01 0.00 0.00 0.00 0.00 0.00 0.00
MSLP
1030.76 1030.73 1030.49 1030.16 1029.82 1029.55 1029.35 1029.21 1029.09 1028.92 1028.67 1028.33 1027.94 1027.52 1027.14 1026.82 1026.59 1026.42 1026.29 1026.16 1025.97 1025.71 1025.39 1025.01 1024.62 1024.23 1023.88 1023.54 1023.22 1022.86 1022.45 1021.97 1021.41 1020.78 1020.13 1019.48 1018.87 1018.32 1017.82 1017.38 1016.97 1016.60 1016.25
1030.87 1030.82 1030.60 1030.28 1029.98 1029.74 1029.58 1029.46 1029.35 1029.20 1028.97 1028.67 1028.32 1027.95 1027.62 1027.35 1027.16 1027.02 1026.91 1026.77 1026.57 1026.30 1025.96 1025.57 1025.16 1024.76 1024.39 1024.04 1023.68 1023.30 1022.86 1022.36 1021.78 1021.14 1020.49 1019.85 1019.24 1018.69 1018.18 1017.71 1017.27 1016.85 1016.44
1031.12 1031.04 1030.80 1030.49 1030.19 1029.97 1029.82 1029.72 1029.63 1029.50 1029.30 1029.04 1028.73 1028.41 1028.13 1027.89 1027.72 1027.58 1027.44 1027.27 1027.04 1026.72 1026.35 1025.94 1025.51 1025.11 1024.73 1024.38 1024.02 1023.63 1023.19 1022.68 1022.10 1021.48 1020.83 1020.20 1019.60 1019.04 1018.52 1018.03 1017.56 1017.10 1016.65
1031.45 1031.33 1031.06 1030.74 1030.45 1030.24 1030.09 1030.00 1029.92 1029.81 1029.64 1029.40 1029.13 1028.84 1028.58 1028.36 1028.17 1028.01 1027.82 1027.60 1027.31 1026.95 1026.54 1026.11 1025.68 1025.28 1024.92 1024.58 1024.24 1023.87 1023.44 1022.95 1022.39 1021.78 1021.15 1020.53 1019.93 1019.37 1018.83 1018.32 1017.82 1017.33 1016.85
1031.77 1031.61 1031.34 1031.02 1030.74 1030.54 1030.40 1030.32 1030.24 1030.12 1029.95 1029.72 1029.46 1029.19 1028.93 1028.69 1028.48 1028.27 1028.03 1027.75 1027.40 1027.01 1026.57 1026.14 1025.72 1025.35 1025.02 1024.71 1024.40 1024.05 1023.65 1023.18 1022.64 1022.05 1021.44 1020.82 1020.22 1019.64 1019.09 1018.55 1018.03 1017.51 1017.02
1031.97 1031.81 1031.56 1031.27 1031.03 1030.85 1030.73 1030.64 1030.55 1030.41 1030.22 1029.98 1029.71 1029.42 1029.14 1028.88 1028.64 1028.38 1028.10 1027.77 1027.40 1026.98 1026.54 1026.12 1025.73 1025.38 1025.09 1024.81 1024.53 1024.21 1023.83 1023.38 1022.86 1022.28 1021.67 1021.05 1020.44 1019.85 1019.27 1018.72 1018.17 1017.65 1017.14
1032.01 1031.88 1031.68 1031.46 1031.28 1031.15 1031.06 1030.97 1030.85 1030.68 1030.45 1030.18 1029.87 1029.56 1029.26 1028.98 1028.71 1028.43 1028.13 1027.78 1027.39 1026.98 1026.56 1026.15 1025.79 1025.47 1025.20 1024.94 1024.68 1024.37 1024.00 1023.56 1023.04 1022.47 1021.86 1021.23 1020.61 1019.99 1019.40 1018.82 1018.26 1017.73 1017.22
1031.87 1031.80 1031.68 1031.57 1031.48 1031.41 1031.35 1031.27 1031.13 1030.92 1030.65 1030.33 1030.00 1029.67 1029.36 1029.07 1028.80 1028.52 1028.21 1027.87 1027.49 1027.10 1026.70 1026.32 1025.97 1025.67 1025.40 1025.14 1024.87 1024.55 1024.16 1023.71 1023.19 1022.61 1021.99 1021.35 1020.71 1020.08 1019.46 1018.87 1018.30 1017.76 1017.25
1031.59 1031.60 1031.60 1031.60 1031.62 1031.63 1031.61 1031.53 1031.38 1031.14 1030.84 1030.49 1030.14 1029.81 1029.50 1029.23 1028.97 1028.72 1028.43 1028.12 1027.76 1027.39 1027.01 1026.65 1026.31 1026.00 1025.71 1025.42 1025.10 1024.74 1024.32 1023.84 1023.30 1022.70 1022.08 1021.43 1020.78 1020.13 1019.49 1018.88 1018.30 1017.75 1017.25
1031.23 1031.34 1031.46 1031.59 1031.71 1031.80 1031.82 1031.76 1031.60 1031.34 1031.03 1030.68 1030.33 1030.02 1029.75 1029.51 1029.29 1029.06 1028.81 1028.52 1028.20 1027.84 1027.48 1027.11 1026.76 1026.42 1026.09 1025.74 1025.37 1024.95 1024.48 1023.96 1023.39 1022.78 1022.14 1021.48 1020.82 1020.15 1019.50 1018.87 1018.26 1017.70 1017.19
1030.88 1031.09 1031.32 1031.56 1031.77 1031.93 1031.99 1031.94 1031.78 1031.53 1031.22 1030.89 1030.59 1030.32 1030.10 1029.91 1029.73 1029.54 1029.32 1029.04 1028.73 1028.38 1028.01 1027.63 1027.25 1026.87 1026.49 1026.08 1025.65 1025.17 1024.65 1024.09 1023.48 1022.85 1022.20 1021.53 1020.84 1020.16 1019.48 1018.81 1018.18 1017.59 1017.06
1030.60 1030.90 1031.23 1031.55 1031.82 1032.02 1032.10 1032.06 1031.91 1031.67 1031.39 1031.11 1030.87 1030.66 1030.50 1030.37 1030.24 1030.07 1029.86 1029.59 1029.27 1028.90 1028.51 1028.11 1027.70 1027.28 1026.85 1026.40 1025.91 1025.39 1024.82 1024.22 1023.59 1022.93 1022.26 1021.56 1020.85 1020.13 1019.41 1018.70 1018.02 1017.40 1016.83
1030.40 1030.78 1031.17 1031.55 1031.85 1032.06 1032.14 1032.10 1031.96 1031.75 1031.51 1031.30 1031.12 1031.00 1030.90 1030.82 1030.72 1030.57 1030.35 1030.06 1029.71 1029.32 1028.90 1028.47 1028.03 1027.59 1027.13 1026.65 1026.13 1025.57 1024.98 1024.35 1023.69 1023.01 1022.31 1021.58 1020.83 1020.06 1019.28 1018.51 1017.77 1017.08 1016.47
1030.28 1030.72 1031.16 1031.55 1031.86 1032.05 1032.12 1032.06 1031.92 1031.73 1031.55 1031.40 1031.30 1031.25 1031.22 1031.18 1031.10 1030.94 1030.70 1030.38 1030.00 1029.57 1029.12 1028.67 1028.21 1027.76 1027.30 1026.80 1026.28 1025.71 1025.11 1024.46 1023.78 1023.07 1022.33 1021.56 1020.75 1019.91 1019.05 1018.20 1017.39 1016.64 1015.98
1030.17 1030.66 1031.13 1031.52 1031.81 1031.98 1032.01 1031.93 1031.79 1031.62 1031.48 1031.39 1031.36 1031.37 1031.40 1031.39 1031.32 1031.16 1030.89 1030.53 1030.11 1029.64 1029.17 1028.70 1028.25 1027.80 1027.34 1026.86 1026.35 1025.79 1025.18 1024.52 1023.82 1023.08 1022.29 1021.45 1020.57 1019.65 1018.71 1017.78 1016.89 1016.08 1015.36
1030.02 1030.55 1031.04 1031.43 1031.70 1031.83 1031.82 1031.72 1031.57 1031.42 1031.31 1031.27 1031.30 1031.36 1031.42 1031.44 1031.37 1031.20 1030.91 1030.52 1030.07 1029.58 1029.09 1028.62 1028.16 1027.73 1027.28 1026.82 1026.32 1025.77 1025.16 1024.50 1023.78 1022.99 1022.15 1021.24 1020.28 1019.28 1018.26 1017.25 1016.29 1015.42 1014.67
1029.76 1030.34 1030.86 1031.25 1031.51 1031.61 1031.59 1031.47 1031.32 1031.17 1031.09 1031.08 1031.14 1031.23 1031.32 1031.35 1031.29 1031.12 1030.82 1030.42 1029.95 1029.46 1028.96 1028.48 1028.03 1027.59 1027.16 1026.70 1026.21 1025.66 1025.04 1024.36 1023.61 1022.78 1021.88 1020.91 1019.88 1018.81 1017.72 1016.64 1015.63 1014.73 1013.96
1029.38 1030.01 1030.57 1030.99 1031.26 1031.37 1031.34 1031.22 1031.07 1030.93 1030.86 1030.86 1030.93 1031.04 1031.13 1031.18 1031.12 1030.96 1030.67 1030.28 1029.82 1029.32 1028.83 1028.34 1027.88 1027.44 1026.99 1026.52 1026.01 1025.44 1024.81 1024.10 1023.31 1022.44 1021.49 1020.47 1019.39 1018.26 1017.12 1016.02 1014.98 1014.06 1013.29
1028.87 1029.58 1030.19 1030.67 1030.97 1031.11 1031.11 1031.01 1030.87 1030.74 1030.67 1030.66 1030.72 1030.82 1030.92 1030.96 1030.92 1030.77 1030.50 1030.14 1029.70 1029.22 1028.72 1028.23 1027.75 1027.27 1026.79 1026.28 1025.73 1025.13 1024.46 1023.72 1022.90 1021.99 1021.01 1019.95 1018.84 1017.69 1016.53 1015.41 1014.38 1013.47 1012.72
1028.29 1029.07 1029.76 1030.30 1030.67 1030.87 1030.92 1030.86 1030.75 1030.63 1030.55 1030.52 1030.56 1030.63 1030.70 1030.73 1030.69 1030.56 1030.33 1030.00 1029.60 1029.14 1028.65 1028.14 1027.63 1027.11 1026.57 1026.00 1025.40 1024.74 1024.03 1023.25 1022.40 1021.47 1020.47 1019.40 1018.28 1017.12 1015.98 1014.88 1013.87 1012.99 1012.27
1027.68 1028.54 1029.30 1029.92 1030.37 1030.65 1030.77 1030.77 1030.69 1030.59 1030.50 1030.45 1030.44 1030.46 1030.49 1030.50 1030.45 1030.34 1030.13 1029.84 1029.48 1029.04 1028.56 1028.04 1027.49 1026.92 1026.31 1025.68 1025.02 1024.31 1023.56 1022.74 1021.87 1020.93 1019.93 1018.86 1017.75 1016.61 1015.49 1014.42 1013.45 1012.61 1011.92
1027.10 1028.02 1028.86 1029.55 1030.08 1030.44 1030.64 1030.71 1030.68 1030.60 1030.50 1030.41 1030.35 1030.31 1030.28 1030.25 1030.18 1030.06 1029.88 1029.62 1029.29 1028.88 1028.41 1027.88 1027.30 1026.68 1026.03 1025.34 1024.62 1023.87 1023.08 1022.25 1021.37 1020.43 1019.43 1018.37 1017.28 1016.17 1015.08 1014.05 1013.12 1012.32 1011.66
1026.59 1027.56 1028.44 1029.20 1029.79 1030.23 1030.50 1030.63 1030.65 1030.60 1030.50 1030.38 1030.26 1030.15 1030.05 1029.96 1029.85 1029.72 1029.54 1029.30 1028.99 1028.61 1028.15 1027.63 1027.04 1026.39 1025.70 1024.98 1024.23 1023.45 1022.65 1021.81 1020.93 1020.00 1019.01 1017.97 1016.90 1015.81 1014.75 1013.75 1012.85 1012.08 1011.44
1026.16 1027.16 1028.06 1028.84 1029.47 1029.96 1030.29 1030.48 1030.55 1030.53 1030.44 1030.29 1030.13 1029.96 1029.79 1029.63 1029.47 1029.30 1029.10 1028.87 1028.58 1028.22 1027.79 1027.28 1026.69 1026.05 1025.36 1024.63 1023.87 1023.10 1022.30 1021.46 1020.59 1019.66 1018.68 1017.65 1016.59 1015.52 1014.48 1013.49 1012.61 1011.85 1011.22
1025.82 1026.81 1027.70 1028.46 1029.10 1029.60 1029.97 1030.21 1030.33 1030.35 1030.28 1030.13 1029.94 1029.72 1029.49 1029.26 1029.04 1028.83 1028.61 1028.37 1028.08 1027.74 1027.33 1026.85 1026.30 1025.68 1025.01 1024.30 1023.57 1022.81 1022.03 1021.21 1020.35 1019.43 1018.45 1017.42 1016.36 1015.29 1014.25 1013.27 1012.38 1011.62 1010.99
1025.53 1026.49 1027.33 1028.05 1028.65 1029.15 1029.53 1029.81 1029.98 1030.04 1030.00 1029.88 1029.68 1029.44 1029.16 1028.89 1028.62 1028.36 1028.10 1027.84 1027.56 1027.24 1026.85 1026.40 1025.89 1025.31 1024.68 1024.02 1023.32 1022.59 1021.83 1021.03 1020.18 1019.26 1018.28 1017.25 1016.18 1015.11 1014.06 1013.07 1012.17 1011.40 1010.74
Thickness
5616 5616 5617 5619 5621 5623 5624 5625 5625 5626 5627 5628 5629 5630 5631 5631 5632 5633 5634 5636 5637 5639 5641 5643 5645 5648 5651 5654 5657 5660 5665 5670 5674 5678 5683 5690 5698 5704 5710 5715 5719 5723 5727
5615 5615 5615 5617 5618 5619 5620 5620 5621 5621 5621 5622 5622 5623 5623 5624 5625 5626 5626 5627 5628 5630 5632 5634 5636 5638 5641 5644 5647 5650 5654 5659 5664 5667 5673 5680 5687 5693 5700 5706 5711 5716 5721
5614 5613 5611 5613 5614 5615 5615 5615 5615 5615 5615 5615 5615 5615 5616 5616 5617 5617 5618 5618 5619 5620 5621 5623 5625 5627 5630 5633 5636 5640 5644 5649 5653 5656 5662 5669 5674 5681 5688 5694 5701 5708 5713
5612 5609 5608 5609 5609 5609 5610 5609 5609 5608 5608 5608 5607 5607 5608 5608 5608 5608 5608 5608 5609 5609 5610 5611 5613 5615 5618 5620 5624 5628 5632 5637 5641 5645 5649 5655 5661 5668 5676 5683 5690 5697 5704
5609 5606 5604 5604 5604 5604 5604 5603 5602 5602 5601 5600 5600 5600 5599 5599 5599 5599 5598 5598 5597 5598 5598 5599 5600 5602 5604 5607 5610 5614 5619 5624 5629 5632 5636 5642 5648 5655 5664 5671 5677 5685 5694
5607 5603 5600 5600 5599 5598 5597 5596 5595 5594 5593 5593 5592 5591 5590 5590 5589 5588 5587 5586 5586 5586 5586 5586 5587 5588 5589 5592 5595 5599 5603 5609 5614 5618 5623 5629 5636 5642 5651 5658 5665 5673 5682
5604 5601 5598 5596 5595 5593 5591 5589 5588 5586 5585 5584 5583 5581 5580 5579 5578 5577 5575 5573 5572 5572 5571 5571 5572 5572 5573 5575 5578 5582 5586 5591 5597 5602 5608 5615 5622 5630 5638 5646 5653 5660 5669
5601 5598 5595 5593 5590 5587 5585 5582 5580 5578 5577 5575 5574 5571 5569 5568 5566 5564 5561 5559 5557 5556 5555 5554 5553 5554 5555 5556 5558 5562 5566 5571 5578 5583 5590 5599 5607 5615 5624 5632 5639 5647 5655
5598 5594 5591 5588 5584 5581 5579 5576 5573 5571 5568 5566 5564 5560 5558 5555 5552 5549 5546 5543 5540 5538 5535 5533 5532 5532 5531 5532 5534 5537 5542 5548 5555 5562 5570 5579 5587 5597 5607 5616 5624 5632 5641
5595 5590 5586 5582 5578 5574 5571 5569 5565 5562 5559 5556 5552 5549 5545 5541 5537 5534 5529 5526 5522 5518 5514 5510 5507 5505 5504 5503 5504 5507 5512 5519 5526 5536 5545 5555 5566 5577 5588 5598 5607 5617 5627
5592 5587 5581 5576 5571 5567 5564 5560 5556 5552 5548 5545 5540 5536 5532 5528 5523 5519 5513 5508 5503 5496 5490 5484 5478 5474 5471 5468 5468 5470 5476 5482 5492 5504 5516 5529 5542 5554 5567 5578 5589 5600 5611
5588 5581 5575 5570 5565 5560 5556 5552 5547 5543 5539 5534 5530 5525 5520 5514 5508 5503 5496 5489 5481 5473 5464 5455 5446 5439 5433 5430 5429 5431 5435 5442 5453 5466 5482 5497 5512 5527 5541 5555 5569 5581 5594
5584 5576 5570 5564 5558 5553 5548 5544 5539 5534 5529 5524 5519 5513 5507 5500 5493 5485 5477 5468 5458 5448 5437 5425 5415 5405 5397 5392 5391 5392 5396 5402 5411 5424 5441 5458 5477 5496 5514 5531 5546 5561 5576
5579 5571 5565 5559 5552 5546 5541 5535 5531 5525 5520 5514 5508 5501 5494 5486 5477 5467 5456 5444 5432 5419 5406 5393 5381 5371 5363 5358 5355 5356 5359 5364 5372 5383 5399 5417 5438 5460 5482 5503 5522 5539 5556
5576 5567 5560 5553 5547 5540 5534 5529 5523 5517 5510 5503 5496 5488 5479 5469 5458 5447 5433 5419 5404 5388 5373 5359 5348 5339 5332 5327 5324 5322 5324 5328 5335 5345 5360 5377 5397 5421 5447 5472 5494 5515 5534
5573 5564 5555 5548 5541 5535 5528 5521 5515 5508 5500 5492 5483 5474 5463 5452 5439 5425 5409 5393 5376 5358 5342 5329 5319 5311 5304 5299 5296 5292 5292 5295 5302 5311 5324 5341 5359 5383 5410 5438 5464 5488 5510
5571 5561 5552 5544 5536 5529 5522 5514 5507 5499 5491 5481 5471 5460 5447 5434 5419 5402 5385 5366 5348 5332 5317 5305 5295 5287 5279 5271 5265 5262 5261 5263 5268 5278 5291 5308 5327 5348 5374 5403 5431 5459 5484
5568 5558 5548 5540 5531 5523 5515 5507 5499 5490 5480 5470 5458 5445 5431 5415 5398 5380 5361 5342 5325 5310 5296 5285 5274 5264 5254 5244 5238 5233 5230 5230 5235 5244 5259 5276 5296 5319 5343 5370 5398 5427 5455
5566 5555 5545 5536 5526 5517 5508 5499 5490 5480 5470 5458 5445 5431 5416 5398 5379 5360 5340 5322 5306 5291 5278 5265 5255 5241 5231 5221 5213 5209 5204 5201 5204 5212 5227 5245 5267 5292 5317 5342 5368 5395 5424
5564 5552 5542 5532 5522 5511 5501 5491 5481 5470 5459 5446 5433 5417 5401 5382 5362 5342 5322 5305 5289 5275 5262 5248 5237 5225 5210 5199 5193 5188 5182 5178 5179 5186 5198 5217 5241 5266 5292 5316 5340 5365 5394
5563 5550 5538 5527 5516 5505 5493 5481 5470 5459 5447 5435 5420 5404 5387 5367 5347 5326 5307 5290 5275 5260 5246 5232 5220 5208 5196 5183 5174 5172 5170 5162 5158 5163 5175 5192 5213 5237 5262 5288 5312 5337 5364
5562 5548 5535 5523 5510 5498 5486 5474 5461 5450 5438 5425 5410 5393 5374 5353 5333 5313 5295 5278 5263 5248 5234 5220 5206 5193 5184 5170 5156 5151 5152 5155 5149 5148 5155 5171 5189 5210 5235 5261 5286 5313 5340
5561 5547 5533 5518 5504 5491 5479 5465 5453 5441 5428 5414 5398 5380 5360 5341 5321 5302 5284 5268 5252 5237 5222 5208 5194 5181 5171 5164 5150 5138 5133 5135 5140 5144 5146 5158 5174 5194 5218 5243 5269 5295 5319
5560 5544 5528 5512 5498 5485 5471 5458 5444 5430 5416 5402 5386 5369 5350 5330 5310 5291 5274 5259 5243 5228 5213 5199 5186 5171 5159 5154 5149 5141 5132 5127 5126 5136 5146 5153 5165 5183 5204 5228 5252 5277 5302
5557 5539 5523 5507 5492 5479 5465 5450 5436 5421 5407 5393 5377 5359 5341 5321 5301 5283 5267 5251 5236 5221 5207 5192 5179 5166 5154 5146 5142 5139 5136 5133 5129 5127 5137 5151 5162 5175 5193 5216 5240 5264 5286
5552 5534 5518 5502 5487 5473 5458 5444 5429 5414 5399 5383 5367 5349 5331 5313 5295 5277 5261 5245 5230 5216 5202 5188 5174 5162 5152 5144 5138 5135 5133 5132 5133 5132 5135 5144 5155 5170 5187 5207 5229 5250 5271